Find Yaogan 36 04 zu 01 xing

NORAD ID: 54746 Int'l Des: 2022-171 Owner: ZZB Country: CN Constellation: yaogan operational
LEOCIRCULAR

实时位置

正在加载3D地球...

关于 Yaogan 36 04 zu 01 xing

正在加载描述...

即将过境

Passes for default location (London). Set your location on the main map for personalized predictions.

高度历史

Loading altitude history...

两行轨道根数

1 54746U 22171A 26119.59787764 .00006237 00000-0 28053-3 0 9990
2 54746 34.9893 165.9635 0008356 216.8319 143.1822 15.20414910187724
Epoch: Apr 29, 2026 • Age: 8 hours

当前状态

高度 508.3 km
速度 7.61 km/s
星下点 14.12°N, 8.15°W
发射日期 Dec 14, 2022
运行时间 3.3 years
类型 military

技术详情

分类 Payload
质量 300.00 kg
干质量 300.00 kg
总质量 300.00 kg
长度 2.50 m
直径 2.50 m
跨度 5.00 m
形状 Box + 2 Pan
制造商 DFHZ
阶段状态 In Orbit
所有者/国家 ZZB/CN

Most Searched